Location: Korczew
(51.3586°N, 19.4491°E)
Time: 07:19:18
(UTC+00:00)

Cosmos 1315 Rocket - Pass Details

Date: 19 May 2025
Orbit: 498 x 525 km, 81.2° (Epoch: 16 June)

Event Time Altitude Azimuth Distance (km) Brightness Sun altitude
Exits shadow 20:55:12 16° 205° (SSW) 1,424 4.6 -15.1°
Maximum altitude 20:58:12 64° 284° (WNW) 588 3.1 -15.3°
Drops below altitude 10° 21:02:05 10° 7° (N) 1,775 6.3 -15.6°
Sets 21:04:15 0° 11° (N) 2,665 7.3 -15.7°
